Location: Bruch
(44.2051°N, 0.4120°E)
Time: 09:03:04
(UTC+00:00)

Cosmos 1437 Rocket - Pass Details

Date: 29 November 2020
Orbit: 504 x 563 km, 81.2° (Epoch: 25 January)

Event Time Altitude Azimuth Distance (km) Brightness Sun altitude
Exits shadow 06:10:12 - 347° (NNW) 2,606 5.9 -10.8°
Reaches altitude 10° 06:12:18 10° 345° (NNW) 1,732 5.0 -10.5°
Maximum altitude 06:16:04 69° 262° (W) 546 2.6 -9.9°
Drops below altitude 10° 06:19:48 10° 179° (S) 1,712 5.6 -9.2°
Sets 06:21:54 0° 177° (S) 2,593 6.6 -8.9°
